Regional Weather Roundup
Issued by NWS

Home | Current Version | Previous Version | Graphics & Text | Print | Product List | Glossary On
Versions: 1 2 3 4 5 6 7 8 9 10 11 12 13 14 15 16 17 18 19 20 21 22 23 24 25 26 27 28 29 30 31 32 33 34 35 36 37 38 39 40 41 42 43 44 45 46 47 48 49 50
000
ASUS43 KOAX 112302
RWRNE

WEATHER ROUNDUP FOR NEBRASKA
NATIONAL WEATHER SERVICE OMAHA NE
500 PM CST THU FEB 11 2016

NOTES: SATELLITE DATA IS BEING USED TO AUGMENT CLOUD COVER ABOVE
       12000 FEET.
       "FAIR" INDICATES FEW OR NO CLOUDS BELOW 12,000 FEET WITH NO
       SIGNIFICANT WEATHER AND/OR OBSTRUCTIONS TO VISIBILITY.

  * THESE STATIONS DO NOT REPORT WEATHER SUCH AS RAIN...SNOW OR FOG.

NEZ001>004-019>022-054>056-120000-
NEBRASKA PANHANDLE

CITY           SKY/WX    TMP DP  RH WIND       PRES   REMARKS
SCOTTSBLUFF    CLOUDY    56  26  31 NW24G32   30.12R
ALLIANCE       CLOUDY    48  34  58 NW9       30.09R
CHADRON        SUNNY     56  26  31 NW20G28   30.09R
KIMBALL        CLOUDY    50  28  41 NW14      30.14R
SIDNEY         CLOUDY    50  33  52 NW8       30.12R
$$

NEZ057>060-069>072-079>082-120000-
SOUTHWEST NEBRASKA

CITY           SKY/WX    TMP DP  RH WIND       PRES   REMARKS
NORTH PLATTE   SUNNY     53  34  48 CALM      30.04R
IMPERIAL       CLOUDY    52  33  48 NW12      30.08R
LEXINGTON      SUNNY     40  32  71 SW6       30.06S
MCCOOK         CLOUDY    48  32  53 N3        30.07R
$$

NEZ005>010-023>029-035>040-094-120000-
NORTH CENTRAL NEBRASKA

CITY           SKY/WX    TMP DP  RH WIND       PRES   REMARKS
VALENTINE      MOSUNNY   45  32  60 N15G25    30.02R
AINSWORTH      MOSUNNY   49  32  52 N14G22    30.01R
BROKEN BOW     CLOUDY    40  32  73 S6        30.03R
ORD            SUNNY     35  30  82 S8        30.03F WCI  29
$$

NEZ041-046>049-061>064-073>077-083>087-120000-
SOUTH CENTRAL NEBRASKA

CITY           SKY/WX    TMP DP  RH WIND       PRES   REMARKS
GRAND ISLAND   CLOUDY    30  26  85 SW12      30.10R WCI  20
AURORA         CLOUDY    30  27  89 SW9       30.10S WCI  22
HASTINGS       CLOUDY    31  26  82 SW7       30.09S WCI  24
HEBRON         CLOUDY    29  26  87 SW7       30.13R FOG     WCI  22
KEARNEY *      CLOUDY    34  28  80 SW12      30.08S WCI  25
YORK           CLOUDY    28  27  93 SW9       30.13R WCI  20
$$

NEZ011>018-030>034-042>045-120000-
NORTHEAST NEBRASKA

CITY           SKY/WX    TMP DP  RH WIND       PRES   REMARKS
NORFOLK        CLOUDY    26  21  81 SE10      30.11R WCI  16
BLAIR          CLOUDY    27  20  77 E6        30.16R WCI  20
COLUMBUS *     CLOUDY    28  16  59 S10       30.13F WCI  19
FREMONT        CLOUDY    26  20  77 S5        30.18R WCI  21
TEKAMAH        CLOUDY    21  14  74 SE8       30.20R WCI  11
$$

NEZ050>053-065>068-078-088>093-120000-
SOUTHEAST NEBRASKA

CITY           SKY/WX    TMP DP  RH WIND       PRES   REMARKS
LINCOLN        CLOUDY    28  23  81 S8        30.18R WCI  20
OMAHA EPPLEY   CLOUDY    27  19  72 E3        30.18F
BEATRICE       MOCLDY    31  24  74 S9        30.14R WCI  23
FALLS CITY     CLOUDY    35  22  58 S10       30.17S WCI  27
NEBRASKA CITY  MOCLDY    33  22  65 S8        30.16F WCI  25
PLATTSMOUTH    CLOUDY    30  21  69 SE8       30.16S WCI  23
$$

NEZ044-045-051>053-067-120000-
OMAHA AREA

CITY           SKY/WX    TMP DP  RH WIND       PRES   REMARKS
OMAHA EPPLEY   CLOUDY    27  19  72 E3        30.18F
BLAIR          CLOUDY    27  20  77 E6        30.16R WCI  20
FREMONT        CLOUDY    26  20  77 S5        30.18R WCI  21
OFFUTT AFB     CLOUDY    30  21  68 SE7       30.17S WCI  24
PLATTSMOUTH    CLOUDY    30  21  69 SE8       30.16S WCI  23
WAHOO          CLOUDY    27  22  81 CALM      30.18R
$$



USA.gov is the U.S. government's official web portal to all federal, state and local government web resources and services.